Regional Weather Roundup
Issued by NWS

Home | Current Version | Previous Version | Graphics & Text | Print | Product List | Glossary On
Versions: 1 2 3 4 5 6 7 8 9 10 11 12 13 14 15 16 17 18 19 20 21 22 23 24 25 26 27 28 29 30 31 32 33 34 35 36 37 38 39 40 41 42 43 44 45 46 47 48 49 50
000
ASUS43 KDTX 212210
RWRMI
MICHIGAN HOURLY REGIONAL WEATHER ROUNDUP
NATIONAL WEATHER SERVICE DETROIT/PONTIAC MI
600 PM EDT THU AUG 21 2014

NOTE: "FAIR" INDICATES FEW OR NO CLOUDS BELOW 12,000 FEET WITH NO
SIGNIFICANT WEATHER AND/OR OBSTRUCTION TO VISIBILITY.

MIZ047>049-052>055-059>063-066>070-074>076-081>083-212300-
SOUTHEAST LOWER MICHIGAN

CITY           SKY/WX    TMP DP  RH WIND       PRES   REMARKS
ADRIAN         CLOUDY    79  69  71 W10       29.98S
ALMA           CLOUDY    75  67  77 NE3       29.97F
ANN ARBOR      CLOUDY    80  69  69 W5        29.97R
BAD AXE        CLOUDY    69  65  90 NE5       30.00R
DETROIT CITY   PTSUNNY   82  69  64 S5        29.95F
DETROIT        CLOUDY    79  70  74 SW6       29.96S
FLINT          CLOUDY    80  67  64 W6        29.97S
GROSSE ILE     PTSUNNY   75  72  88 S6        29.95S HAZE
HILLSDALE      LGT RAIN  76  74  93 SW3       29.98F
HOWELL         CLOUDY    78  69  75 W5        29.98S

CITY           SKY/WX    TMP DP  RH WIND       PRES   REMARKS
JACKSON        LGT RAIN  76  71  85 CALM      29.97F
LAMBERTVILLE   CLOUDY    79  70  73 W8        29.98S
LANSING        RAIN      77  69  76 N3        29.97F
LAPEER         NOT AVBL
MASON          CLOUDY    77  69  76 S3        29.98R
MONROE         CLOUDY    79  70  73 SW13      29.96R
MT. CLEMENS    PTSUNNY   76  65  69 E6        29.95S
PONTIAC        PTSUNNY   79  66  64 SW3       29.97S
PORT HOPE        N/A     68  62  81 E5        29.98S
PORT HURON     CLOUDY    77  68  73 W3        29.97S
TRI CITIES     CLOUDY    77  65  66 SW5       29.99R
YPSILANTI      CLOUDY    83  70  64 SW9       29.97S
$$
MIZ043>046-050>051-056>058-064>065-071>073-077>080-212300-
SOUTHWEST LOWER MICHIGAN

CITY           SKY/WX    TMP DP  RH WIND       PRES   REMARKS
BATTLE CREEK   CLOUDY    77  70  79 SW10      29.98R
BENTON HARBOR  CLOUDY    76  72  87 CALM      29.96S
BIG RAPIDS     CLOUDY    73  68  85 S6        29.96F
COLDWATER      CLOUDY    79  71  76 SW12      29.97F
HOLLAND        LGT RAIN  76  71  85 SW8       29.97R
GRAND RAPIDS   CLOUDY    78  73  84 CALM      29.96F
KALAMAZOO      CLOUDY    77  73  87 SW6       29.98R
MARSHALL       CLOUDY    77  71  82 W8        29.97S
MUSKEGON       CLOUDY    77  69  76 S5        29.95R
$$
MIZ016>042-212300-
NORTHERN LOWER MICHIGAN

CITY           SKY/WX    TMP DP  RH WIND       PRES   REMARKS
ALPENA         CLOUDY    68  63  84 E6        30.00R
BEAVER ISLAND  PTSUNNY   74  62  68 NW5       29.98S
BELLAIRE       PTSUNNY   75  62  63 CALM      29.97S
CADILLAC       CLOUDY    72  65  79 CALM      29.98S
CHARLEVOIX     MOSUNNY   71  62  72 N6        30.01S
FRANKFORT      CLOUDY    77  64  65 CALM      29.94F
GAYLORD        CLOUDY    74  59  59 NW3       30.00S
GRAYLING       PTSUNNY   75  61  62 N5        30.00S
HARBOR SPRINGS PTSUNNY   71  63  75 CALM      29.98F
HOUGHTON LAKE  CLOUDY    76  61  59 CALM      29.99S
MANISTEE       CLOUDY    73  64  73 E6        29.95S
OSCODA         CLOUDY    70  64  81 E6        29.99R
PELLSTON       CLOUDY    74  63  68 NW3       29.99R
TRAVERSE CITY  PTSUNNY   74  62  66 N8        29.95F
$$
MIZ007>008-015-212300-
EASTERN UPPER MICHIGAN

CITY           SKY/WX    TMP DP  RH WIND       PRES   REMARKS
KINROSS        CLOUDY    73  64  73 CALM      29.99R
MACKINAC ISLAN SUNNY     71  63  76 SW5       29.99R
NEWBERRY       CLOUDY    70  62  74 SW10      29.98S
S. S. MARIE    CLOUDY    71  63  75 W5        29.97R
$$
MIZ004>006-011>014-085-212300-
CENTRAL UPPER MICHIGAN

CITY           SKY/WX    TMP DP  RH WIND       PRES   REMARKS
MANISTIQUE     SUNNY     69  63  82 S3        29.98S
ESCANABA       CLOUDY    66  61  82 SE6       29.97S
MENOMINEE      CLOUDY    70  61  73 E6        29.95R
SAWYER-GWINN   MOSUNNY   72  61  68 S8        29.97S
$$
MIZ001>003-009>011-084-212300-
WESTERN UPPER MICHIGAN

CITY           SKY/WX    TMP DP  RH WIND       PRES   REMARKS
IRON MOUNTAIN  LGT RAIN  67  64  90 SE6       29.96R
HOUGHTON       PTSUNNY   61  58  90 E10       29.94F
COPPER HARBOR    N/A     60  56  86 SE6       29.95F
IRONWOOD       CLOUDY    72  66  83 SE5       29.88S
$$

ABBREVIATIONS USED IN REMARKS
   TC - TEMPERATURE IN CELSIUS
  WCI - WIND CHILL INDEX
   HX - HEAT INDEX
  VSB - VISIBILITY



USA.gov is the U.S. government's official web portal to all federal, state and local government web resources and services.